Flag for Germany Weather past 2 weeks in Alsfeld, Hesse, Germany

Now
65 °F

Fog.


Feels Like: 65 °F
Forecast: 55 / 67 °F
Wind: 2 mph from Northwest

Location: Fritzlar

Current Time: Aug 31, 2015 at 3:38:28 AM

Latest Report: Aug 31, 2015 at 3:00 AM


Visibility: 6 mi

Pressure: 29.99 "Hg

Humidity: 95%

Dew point: 64 °F

Location of AlsfeldLocation

Historic Weather in Alsfeld — Graph

°F

Alsfeld temperature yesterday

Maximum temperature yesterday: 89 °F (at 5:00 PM)
Minimum temperature yesterday: 60 °F (at 7:00 AM)
Average temperature yesterday: 73 °F

Past Weeks' High & Low Weather Summary

 TemperatureHumidityPressure
High89 °F (Aug 30, 5:00 PM)99% (Aug 19, 8:00 AM)30.32 "Hg (Aug 19, 8:00 AM)
Low50 °F (Aug 21, 5:00 AM)29% (Aug 22, 4:00 PM)29.64 "Hg (Aug 24, 3:00 PM)
Average64 °F75%30.00 "Hg
* Reported Aug 16 2:00 AM — Aug 31 2:00 AM, Alsfeld, Weather by CustomWeather, © 2015

Note: Actual official high and low records may vary slightly from our data, if they occured in-between our weather recording intervals... More about our weather records

Advertising

Alsfeld weather history for previous 24 hours

 ConditionsComfort  
Time TempWeatherWind HumidityBarometerVisibility
2:00 AM
Mon, Aug 31
64 °FFog.1 mph95%30.00 "Hg6 mi
1:00 AM68 °FFog.2 mph90%30.00 "Hg7 mi
12:00 AM68 °FFog.1 mph94%29.99 "Hg9 mi
11:00 PM
Sun, Aug 30
69 °FOvercast.1 mph92%30.00 "Hg12 mi
10:00 PM71 °FOvercast.1 mph88%30.01 "Hg14 mi
9:00 PM74 °FOvercast.2 mph87%30.00 "Hg17 mi
8:00 PM79 °FOvercast.2 mph73%29.98 "Hg28 mi
7:00 PM85 °FOvercast.3 mph56%29.97 "Hg28 mi
6:00 PM87 °FPartly sunny.5 mph51%29.97 "Hg28 mi
5:00 PM89 °FPartly sunny.6 mph47%29.98 "Hg28 mi
4:00 PM88 °FPassing clouds.5 mph48%29.99 "Hg28 mi
3:00 PM87 °FPassing clouds.5 mph51%30.00 "Hg25 mi
2:00 PM85 °FPassing clouds.5 mph58%30.01 "Hg25 mi
1:00 PM82 °FPassing clouds.5 mph63%30.03 "Hg19 mi
12:00 PM78 °FPassing clouds.3 mph68%30.05 "Hg19 mi
11:00 AM73 °FPassing clouds.1 mph75%30.08 "Hg16 mi
10:00 AM69 °FPassing clouds.1 mph83%30.09 "Hg7 mi
9:00 AM64 °FFog.2 mph96%30.10 "Hg3 mi
8:00 AM61 °FFog.2 mph98%30.10 "Hg1 mi
7:00 AM60 °FFog.2 mph98%30.10 "Hg1 mi
5:00 AM61 °FFog.2 mph97%30.10 "Hg2 mi
4:00 AM62 °FFog.3 mph96%30.11 "Hg12 mi
3:00 AM63 °FPassing clouds.2 mph95%30.12 "Hg16 mi
Weather by CustomWeather, © 2015

See weather overviewHow to use our weather pages